This is the latest recevied weather packets stored in our database for station/object K0QED. If no packets are shown the sender has not sent any weather packets the latest 10 day(s).
| Time | Temp. | Humidity | Pressure | Rain* | Wind** | Luminosity | Snow |
|---|---|---|---|---|---|---|---|
| 1788553403 | 29.44° C | 28% | 1024.1 hPa | 0 mm | - | 696 W/m² | - |
| 1788553099 | 31.11° C | 27% | 1024.2 hPa | 0 mm | - | 133 W/m² | - |
| 1788552793 | 31.11° C | 26% | 1024.4 hPa | 0 mm | - | 675 W/m² | - |
| 1788552488 | 30.56° C | 25% | 1024.2 hPa | 0 mm | - | 650 W/m² | - |
| 1788552182 | 30.56° C | 26% | 1024 hPa | 0 mm | - | 671 W/m² | - |
| 1788551881 | 30° C | 26% | 1024.1 hPa | 0 mm | - | 706 W/m² | - |
| 1788551580 | 28.89° C | 29% | 1023.7 hPa | 0 mm | - | 723 W/m² | - |
| 1788551275 | 27.78° C | 30% | 1024.5 hPa | 0 mm | - | 760 W/m² | - |
| 1788550974 | 27.22° C | 29% | 1024.5 hPa | 0 mm | - | 158 W/m² | - |
| 1788550670 | 28.89° C | 28% | 1024.2 hPa | 0 mm | - | 141 W/m² | - |
| 1788550365 | 29.44° C | 27% | 1024.5 hPa | 0 mm | - | 228 W/m² | - |
| 1788550060 | 29.44° C | 27% | 1024.6 hPa | 0 mm | - | 713 W/m² | - |
| 1788549756 | 28.89° C | 27% | 1024.5 hPa | 0 mm | - | 250 W/m² | - |
| 1788549452 | 27.78° C | 28% | 1024.5 hPa | 0 mm | - | 669 W/m² | - |
| 1788549149 | 28.89° C | 27% | 1024.7 hPa | 0 mm | - | 694 W/m² | - |
| 1788548845 | 28.89° C | 27% | 1024.9 hPa | 0 mm | - | 379 W/m² | - |
| 1788548540 | 29.44° C | 26% | 1024.9 hPa | 0 mm | - | 663 W/m² | - |
| 1788548237 | 28.33° C | 26% | 1024.5 hPa | 0 mm | - | 649 W/m² | - |
| 1788547937 | 28.89° C | 26% | 1024.7 hPa | 0 mm | - | 665 W/m² | - |
| 1788547635 | 29.44° C | 26% | 1025 hPa | 0 mm | - | 676 W/m² | - |
| 1788547332 | 28.89° C | 26% | 1025 hPa | 0 mm | - | 658 W/m² | - |
| 1788547027 | 30° C | 25% | 1025 hPa | 0 mm | - | 650 W/m² | - |
| 1788546721 | 29.44° C | 25% | 1025.1 hPa | 0 mm | - | 629 W/m² | - |
| 1788546417 | 28.89° C | 26% | 1024.9 hPa | 0 mm | - | 601 W/m² | - |
| 1788546111 | 28.33° C | 26% | 1025.4 hPa | 0 mm | - | 612 W/m² | - |
* Rain latest hour (hover to see other rain measurements)
** Current wind speed in m/s (hover to see current wind gust speed)